SCP
0 0 0 0 0 0 0 0 0 0 0 0 0 -0 0 0 -0 -0 -0 0 0 0 0 0 0 0 0 0 0 0 0 0 0 0 0 0 0 0 0 0 0 0 0 0
0 0 0 0 0 0 0 0 0 0 0 0 0 0 0 -0 -0 -0 -0 0 0 0 0 0 0 0 0 0 0 0 0 0 0 0 0 0 0 0 0 0 0 0 0 0
0 0 0 0 0 0 0 0 0 0 0 0 -0 -0 -0 -0 -0 0 -0 -0 0 0 0 0 0 0 0 0 0 0 0 0 0 0 0 0 0 0 -0 0 0 0 0 -0
0 0 0 0 0 0 0 0 0 0 0 0 0 0 -0 -0 -0 -0 -0 0 0 0 0 0 0 0 0 0 0 0 0 0 0 0 0 -0 -0 -0 0 -0 0 0 0 0
0 0 0 0 0 0 0 0 0 0 0 0 0 0 -0 -0 -0 -0 -0 0 0 0 0 0 0 0 0 0 0 0 0 0 0 0 0 0 -0 0 0 -0 -0 0 0 0
0 0 0 0 0 0 0 0 0 0 0 0 0 0 0 -0 -0 -0 -0 -0 0 0 0 0 0 0 0 0 0 0 0 0 0 0 0 -0 0 0 0 0 -0 0 0 0
0 0 0 0 0 0 0 0 0 0 0 0 0 0 0 -0 -0 -0 -0 -0 0 0 0 0 0 0 0 0 0 0 0 0 0 0 0 0 0 0 0 0 0 0 0 -0
0 0 0 0 0 0 0 0 0 0 0 0 0 -0 -0 -0 0 -0 0 0 0 0 0 0 0 0 0 0 0 0 0 0 0 0 0 0 0 0 0 0 0 0 0 -0
0 0 0 0 0 0 0 0 0 0 0 0 0 -0 -0 0 0 0 0 0 0 0 0 0 0 0 0 0 0 0 0 0 0 0 0 0 0 0 0 0 0 -0 -0 -0
0 0 0 0 0 0 0 0 0 0 0 0 0 0 -0 0 0 0 0 0 0 0 0 0 0 0 0 0 0 0 0 0 0 0 0 0 0 0 0 0 0 -0 -0 -0
0 0 0 0 0 0 0 0 0 0 0 0 -0 0 -0 -0 0 0 0 0 0 0 0 0 0 0 0 0 0 0 0 0 0 0 0 0 0 0 0 0 0 0 0 -0
0 0 0 0 0 0 0 0 0 0 0 0 -0 0 -0 -0 -0 0 0 0 0 0 0 0 0 0 0 0 0 0 0 0 0 0 0 0 0 0 0 0 0 0 0 0
0 0 0 0 0 0 0 0 0 0 0 0 0 0 0 -0 -0 -0 0 0 0 0 0 0 0 0 0 0 0 0 0 0 0 0 0 0 0 0 0 0 0 0 0 0
0 0 0 0 0 0 0 0 0 0 0 0 0 0 0 -0 -0 0 0 0 0 0 0 0 0 0 0 0 0 0 0 0 0 0 0 0 0 0 0 0 0 0 0 0
0 0 0 0 0 0 0 0 0 0 0 0 0 -0 0 0 -0 -0 -0 0 -0 0 0 0 0 0 0 0 0 0 0 0 0 0 0 0 0 0 0 0 -0 -0 -0 0
0 0 0 0 0 0 0 0 0 0 0 0 0 0 0 0 -0 -0 0 0 -0 0 0 0 0 0 0 0 0 0 0 0 0 0 0 0 -0 0 0 -0 -0 -0 -0 -0
0 0 0 0 0 0 0 0 0 0 0 0 0 0 0 0 -0 -0 0 0 0 0 0 0 0 0 0 0 0 0 0 0 0 0 0 0 0 -0 0 0 0 0 -0 -0
0 0 0 -0 -0 0 0 0 0 0 0 0 0 -0 0 0 -0 -0 0 0 0 0 0 0 0 0 0 0 0 0 0 0 0 0 0 0 -0 -0 -0 0 0 0 0 0
0 -0 -0 0 0 0 0 0 0 0 0 0 0 -0 -0 0 0 0 0 0 0 0 0 0 0 0 0 0 0 0 0 0 0 0 0 0 0 0 0 0 0 0 0 0
0 0 0 0 0 0 0 0 0 0 0 0 -0 0 -0 0 0 0 0 -0 0 0 0 0 0 0 0 -0 0 0 0 0 0 0 0 0 0 0 0 0 0 0 0 0
0 0 0 0 0 0 0 0 0 0 0 0 0 -0 -0 0 0 0 0 0 0 0 0 0 0 0 0 0 -0 -0 -0 -0 -0 0 0 0 0 0 0 0 0 0 0 0
0 0 0 0 0 0 0 0 0 0 0 0 -0 -0 -0 -0 0 0 0 0 0 0 0 0 0 0 0 0 0 -0 -0 0 0 0 -0 -0 -0 0 0 0 0 0 0 0
0 0 0 0 0 0 0 0 0 0 0 0 0 -0 0 0 0 0 0 0 0 0 0 0 0 -0 0 0 0 0 0 -0 -0 -0 -0 -0 -0 -0 -0 -0 0 0 0 0
0 0 0 0 0 0 0 0 0 0 0 -0 -0 -0 0 0 0 0 0 0 0 0 0 0 0 0 0 0 0 0 0 -0 -0 -0 -0 -0 0 0 0 0 0 0 0 0
0 0 0 0 0 0 0 0 0 0 0 0 -0 -0 0 0 0 0 0 0 0 0 0 0 0 0 0 0 0 0 0 -0 -0 -0 -0 0 0 0 0 0 0 0 0 0
0 0 0 0 0 -0 0 0 0 0 0 0 -0 -0 -0 0 0 0 0 0 0 0 0 0 0 0 0 0 0 0 0 0 0 0 0 0 0 0 0 0 0 0 0 0
0 0 0 0 -0 0 0 0 0 0 -0 -0 -0 -0 0 0 0 0 0 0 0 0 0 0 0 0 0 0 0 0 0 0 0 0 0 0 0 0 0 0 0 0 0 0
Wind_Speed_500mb
72 73 74 73 76 72 42 18 8 44 19 23 10 14 13 19 27 32 12 7 12 6 15 30 24 31 15 32 16 16 1 17 29 39 29 33 28 32 28 13 16 6 2 17
68 69 70 69 69 68 39 17 10 23 33 11 14 21 28 22 26 19 16 13 18 18 24 21 22 31 8 45 20 11 11 23 30 31 19 25 33 36 31 21 14 17 10 15
65 66 66 63 66 61 23 15 7 12 22 27 20 20 22 30 23 10 19 9 18 8 12 12 17 22 5 35 26 4 13 16 21 18 30 30 33 32 34 25 15 19 16 24
62 63 63 60 59 58 25 21 8 10 11 15 24 25 24 29 22 19 30 8 29 17 2 22 19 12 16 11 6 6 8 18 17 16 33 35 37 35 34 32 26 17 13 14
57 57 57 55 55 50 27 17 16 19 16 16 17 20 23 27 31 10 19 17 29 19 14 18 10 7 8 10 9 19 11 9 17 20 22 26 28 37 38 38 30 23 14 5
52 52 51 48 49 46 20 22 16 7 19 13 13 16 21 25 29 10 15 23 15 14 19 31 28 10 9 6 14 19 13 9 12 16 17 24 22 24 28 31 29 22 21 11
46 46 43 38 38 35 23 17 18 10 11 13 12 24 27 26 29 14 21 20 11 13 40 25 16 16 11 12 10 9 18 12 5 15 13 24 16 4 7 19 14 7 7 28
42 41 38 30 29 29 20 17 10 8 11 26 16 23 21 27 24 20 17 18 17 29 23 7 11 11 12 11 15 17 13 18 7 11 18 6 13 10 12 19 17 7 23 35
36 36 35 28 23 27 22 13 12 11 16 3 18 24 20 16 15 14 8 24 13 17 7 8 10 12 20 16 18 9 14 16 15 12 17 14 12 18 9 5 17 26 32 38
31 34 31 28 20 19 25 21 23 11 13 20 17 14 16 13 7 8 17 20 12 14 6 11 10 9 6 15 28 17 18 20 22 18 17 10 9 17 15 16 5 31 39 47
34 32 32 29 22 15 22 20 26 14 15 40 31 17 26 27 17 6 13 14 2 6 7 6 3 6 7 6 18 28 24 18 15 19 21 18 16 18 15 12 25 33 38 45
34 31 31 32 27 15 23 23 25 26 29 37 51 51 48 50 52 23 10 7 9 3 3 3 6 7 5 12 12 7 17 9 15 9 8 10 5 11 14 15 35 38 42 40
31 35 31 31 27 19 23 32 22 28 27 42 19 11 10 14 18 22 14 8 2 4 7 5 4 8 7 10 16 15 9 8 8 17 9 15 14 18 23 32 39 42 46 51
32 34 30 31 28 24 22 28 23 22 17 10 9 11 27 19 23 21 30 26 30 21 16 10 6 6 3 6 8 16 3 16 15 9 14 25 20 28 38 48 51 54 50 50
34 35 29 30 29 25 24 28 27 26 16 10 34 46 7 9 25 30 23 27 27 23 6 7 6 5 4 7 5 15 12 9 10 8 40 8 38 41 47 56 58 56 59 52
36 34 31 28 26 20 19 8 10 21 17 13 8 21 12 9 19 28 33 28 22 12 7 7 7 7 6 5 8 1 12 13 16 20 33 49 58 49 48 57 55 53 51 46
34 31 30 27 23 20 18 8 4 6 11 8 12 11 8 10 15 12 14 15 12 12 10 4 5 3 9 2 4 4 6 14 34 53 77 65 61 59 48 51 51 50 46 42
35 32 30 26 21 25 30 25 32 29 12 10 6 9 16 7 10 6 2 6 7 10 6 5 7 7 8 5 0 8 28 44 57 54 34 71 69 63 54 47 45 46 43 40
29 28 21 17 12 13 11 20 14 18 15 7 6 6 7 7 9 4 7 8 4 6 5 3 6 4 2 7 16 25 40 22 50 62 64 62 62 56 49 44 39 44 40 35
19 12 6 9 10 14 9 10 10 19 14 15 9 11 10 14 6 5 7 7 3 4 3 4 4 5 9 18 32 27 36 58 61 67 55 55 52 49 44 39 35 38 37 35
4 5 7 7 10 7 10 10 10 14 9 15 15 24 17 7 7 6 3 3 3 5 4 3 4 2 9 21 18 36 41 41 22 44 49 44 51 48 45 40 38 36 35 33
6 11 16 10 7 12 8 8 9 11 8 17 17 18 15 7 4 7 6 4 6 5 6 3 7 6 27 24 39 41 37 37 47 47 49 45 42 38 39 39 38 34 33 32
4 7 5 7 9 8 12 13 9 7 9 11 15 10 7 9 10 9 5 6 1 4 5 2 5 30 34 31 36 35 39 46 48 48 46 43 42 39 39 40 36 35 32 28
8 7 8 11 11 10 7 7 8 1 6 6 9 8 6 4 7 4 7 2 5 5 7 4 11 31 38 40 38 42 45 46 50 49 46 44 41 39 36 35 35 33 31 28
9 9 9 13 12 9 10 10 11 6 3 6 9 8 8 6 6 4 4 4 5 4 4 5 24 34 38 46 40 44 47 47 47 45 43 41 39 38 38 34 32 30 30 28
10 13 11 12 9 14 15 11 9 5 7 9 12 6 6 8 4 7 8 4 6 3 6 10 31 40 41 46 42 43 44 46 45 42 40 39 38 39 39 36 33 31 29 28
10 16 26 24 16 12 10 5 9 6 10 9 7 8 6 4 6 6 4 2 7 8 9 13 34 47 49 47 46 45 45 45 42 42 38 37 38 39 38 37 33 30 28 28
Wind_Direction_500mb
2 2 359 4 2 3 12 6 37 356 44 48 14 12 345 318 331 347 5 309 286 340 148 168 166 179 180 189 166 186 292 159 152 173 191 182 191 196 202 184 175 55 255 102
1 2 1 2 6 4 360 348 340 354 35 38 2 342 7 350 355 12 352 333 351 316 138 152 175 179 119 179 188 171 181 153 156 155 176 187 185 189 199 215 258 198 160 126
357 1 2 1 4 6 20 346 347 9 31 49 358 344 357 354 352 16 341 334 23 335 156 172 162 161 87 174 199 237 304 163 172 177 168 176 183 185 197 196 191 199 213 127
353 357 0 1 6 10 22 13 41 3 336 359 354 358 358 349 359 344 10 16 13 353 217 145 134 129 125 161 162 220 269 161 201 167 155 177 190 193 205 205 210 236 174 205
352 355 358 360 4 14 30 15 356 340 285 318 348 14 359 351 346 316 352 0 334 332 63 10 59 335 189 166 183 199 219 139 136 129 168 196 200 204 202 211 214 227 250 202
348 351 357 360 3 19 26 10 351 319 298 335 348 14 342 326 347 316 347 328 313 346 6 324 300 317 312 297 191 185 195 152 205 127 170 179 185 192 199 210 225 230 226 146
343 346 351 1 5 13 3 353 347 318 312 322 347 323 334 341 332 309 310 338 345 355 323 299 255 255 233 206 180 203 192 198 199 143 171 202 79 115 186 200 209 184 104 130
337 339 343 355 2 355 358 338 350 323 294 315 298 337 325 330 337 336 316 340 291 319 321 237 186 185 188 161 178 187 233 194 161 162 195 86 149 167 175 189 162 179 140 120
328 330 333 342 353 346 348 329 323 314 303 343 320 315 309 328 339 328 302 337 352 357 263 236 196 185 197 180 156 185 187 219 209 200 190 203 154 146 183 179 221 172 160 154
315 319 322 328 339 340 331 314 315 296 269 282 301 297 323 309 336 283 282 336 338 358 314 218 210 202 277 181 188 181 179 192 204 204 210 206 91 153 163 217 94 159 161 160
308 314 314 317 325 324 319 296 306 272 269 285 266 277 274 280 285 268 318 315 21 326 9 311 237 258 184 232 199 186 189 178 205 221 211 223 159 157 214 78 126 149 150 157
301 301 310 308 310 317 314 303 301 301 267 266 287 277 264 255 252 266 283 275 271 341 317 303 309 272 253 212 195 210 210 220 190 227 193 108 111 48 114 123 135 145 137 139
289 295 302 302 303 317 299 293 293 295 286 304 262 256 253 283 286 248 229 242 274 277 304 293 296 272 306 224 220 212 188 186 197 179 97 116 109 111 122 126 132 137 140 137
285 287 299 299 300 300 292 285 283 265 279 286 295 282 286 262 265 237 252 261 285 292 289 237 234 260 320 291 317 243 13 168 149 95 131 117 110 123 127 125 127 127 128 131
283 287 295 297 295 298 293 281 260 252 243 298 298 305 304 238 217 226 248 252 276 280 245 221 225 231 239 225 325 269 193 180 207 188 162 172 133 131 131 127 127 128 127 125
279 289 298 293 295 298 314 282 247 231 223 292 298 310 294 227 238 243 243 250 274 254 234 227 248 243 209 253 210 254 235 234 226 144 138 129 128 125 129 125 125 125 124 126
288 297 296 291 282 270 247 294 150 180 250 266 284 290 238 256 244 231 244 247 243 248 254 175 257 240 231 250 249 47 169 151 138 139 130 119 126 126 125 121 120 118 117 117
295 299 292 281 268 267 264 261 246 242 248 242 271 270 269 202 260 202 172 252 245 250 289 205 219 196 214 227 194 141 129 127 130 139 129 125 124 121 118 119 123 117 116 118
299 300 293 280 238 232 247 230 202 196 228 271 255 286 289 295 277 218 170 228 257 260 261 209 269 30 49 115 146 136 127 134 131 123 119 120 117 120 124 127 126 122 122 122
303 302 253 227 206 208 188 248 215 209 215 220 251 249 264 296 298 234 170 250 194 269 243 179 54 356 49 108 128 147 148 133 134 122 122 123 126 129 128 127 128 128 129 129
346 262 255 290 236 202 210 224 211 190 221 213 232 227 256 265 286 318 283 221 270 285 136 237 113 133 109 132 123 132 138 139 128 130 131 133 131 131 130 128 128 129 129 132
246 278 296 285 225 222 236 210 190 213 241 176 217 206 222 262 240 255 228 273 184 253 314 244 126 167 147 140 134 137 138 137 132 129 126 126 126 128 130 130 132 134 135 133
296 225 243 223 201 243 221 201 205 224 192 205 209 199 220 212 236 254 253 243 186 289 268 40 65 143 145 144 135 129 129 130 127 126 127 127 128 131 134 135 135 133 132 134
249 220 230 226 198 231 226 249 285 55 229 241 253 242 242 209 234 270 264 94 237 212 183 166 147 160 149 149 141 133 134 132 132 133 132 131 130 130 132 134 137 137 134 137
250 234 239 224 252 266 271 260 242 211 268 297 280 242 242 209 259 234 296 227 260 210 151 118 149 158 151 149 144 140 138 138 138 139 137 135 134 135 134 135 135 136 135 138
235 232 257 244 266 262 238 230 245 259 273 285 251 253 218 204 232 222 232 226 170 122 95 114 153 157 155 154 148 141 145 143 141 142 141 140 140 141 139 137 136 135 133 131
235 232 234 249 270 277 278 232 223 217 263 260 261 237 174 153 222 223 211 322 70 65 90 131 158 156 153 150 145 144 146 143 143 142 143 142 142 142 141 140 139 135 133 133
Wind_Speed_850mb
72 73 74 73 76 72 42 18 8 44 19 23 10 14 13 19 27 32 12 7 12 6 15 30 24 31 15 32 16 16 1 17 29 39 29 33 28 32 28 13 16 6 2 17
68 69 70 69 69 68 39 17 10 23 33 11 14 21 28 22 26 19 16 13 18 18 24 21 22 31 8 45 20 11 11 23 30 31 19 25 33 36 31 21 14 17 10 15
65 66 66 63 66 61 23 15 7 12 22 27 20 20 22 30 23 10 19 9 18 8 12 12 17 22 5 35 26 4 13 16 21 18 30 30 33 32 34 25 15 19 16 24
62 63 63 60 59 58 25 21 8 10 11 15 24 25 24 29 22 19 30 8 29 17 2 22 19 12 16 11 6 6 8 18 17 16 33 35 37 35 34 32 26 17 13 14
57 57 57 55 55 50 27 17 16 19 16 16 17 20 23 27 31 10 19 17 29 19 14 18 10 7 8 10 9 19 11 9 17 20 22 26 28 37 38 38 30 23 14 5
52 52 51 48 49 46 20 22 16 7 19 13 13 16 21 25 29 10 15 23 15 14 19 31 28 10 9 6 14 19 13 9 12 16 17 24 22 24 28 31 29 22 21 11
46 46 43 38 38 35 23 17 18 10 11 13 12 24 27 26 29 14 21 20 11 13 40 25 16 16 11 12 10 9 18 12 5 15 13 24 16 4 7 19 14 7 7 28
42 41 38 30 29 29 20 17 10 8 11 26 16 23 21 27 24 20 17 18 17 29 23 7 11 11 12 11 15 17 13 18 7 11 18 6 13 10 12 19 17 7 23 35
36 36 35 28 23 27 22 13 12 11 16 3 18 24 20 16 15 14 8 24 13 17 7 8 10 12 20 16 18 9 14 16 15 12 17 14 12 18 9 5 17 26 32 38
31 34 31 28 20 19 25 21 23 11 13 20 17 14 16 13 7 8 17 20 12 14 6 11 10 9 6 15 28 17 18 20 22 18 17 10 9 17 15 16 5 31 39 47
34 32 32 29 22 15 22 20 26 14 15 40 31 17 26 27 17 6 13 14 2 6 7 6 3 6 7 6 18 28 24 18 15 19 21 18 16 18 15 12 25 33 38 45
34 31 31 32 27 15 23 23 25 26 29 37 51 51 48 50 52 23 10 7 9 3 3 3 6 7 5 12 12 7 17 9 15 9 8 10 5 11 14 15 35 38 42 40
31 35 31 31 27 19 23 32 22 28 27 42 19 11 10 14 18 22 14 8 2 4 7 5 4 8 7 10 16 15 9 8 8 17 9 15 14 18 23 32 39 42 46 51
32 34 30 31 28 24 22 28 23 22 17 10 9 11 27 19 23 21 30 26 30 21 16 10 6 6 3 6 8 16 3 16 15 9 14 25 20 28 38 48 51 54 50 50
34 35 29 30 29 25 24 28 27 26 16 10 34 46 7 9 25 30 23 27 27 23 6 7 6 5 4 7 5 15 12 9 10 8 40 8 38 41 47 56 58 56 59 52
36 34 31 28 26 20 19 8 10 21 17 13 8 21 12 9 19 28 33 28 22 12 7 7 7 7 6 5 8 1 12 13 16 20 33 49 58 49 48 57 55 53 51 46
34 31 30 27 23 20 18 8 4 6 11 8 12 11 8 10 15 12 14 15 12 12 10 4 5 3 9 2 4 4 6 14 34 53 77 65 61 59 48 51 51 50 46 42
35 32 30 26 21 25 30 25 32 29 12 10 6 9 16 7 10 6 2 6 7 10 6 5 7 7 8 5 0 8 28 44 57 54 34 71 69 63 54 47 45 46 43 40
29 28 21 17 12 13 11 20 14 18 15 7 6 6 7 7 9 4 7 8 4 6 5 3 6 4 2 7 16 25 40 22 50 62 64 62 62 56 49 44 39 44 40 35
19 12 6 9 10 14 9 10 10 19 14 15 9 11 10 14 6 5 7 7 3 4 3 4 4 5 9 18 32 27 36 58 61 67 55 55 52 49 44 39 35 38 37 35
4 5 7 7 10 7 10 10 10 14 9 15 15 24 17 7 7 6 3 3 3 5 4 3 4 2 9 21 18 36 41 41 22 44 49 44 51 48 45 40 38 36 35 33
6 11 16 10 7 12 8 8 9 11 8 17 17 18 15 7 4 7 6 4 6 5 6 3 7 6 27 24 39 41 37 37 47 47 49 45 42 38 39 39 38 34 33 32
4 7 5 7 9 8 12 13 9 7 9 11 15 10 7 9 10 9 5 6 1 4 5 2 5 30 34 31 36 35 39 46 48 48 46 43 42 39 39 40 36 35 32 28
8 7 8 11 11 10 7 7 8 1 6 6 9 8 6 4 7 4 7 2 5 5 7 4 11 31 38 40 38 42 45 46 50 49 46 44 41 39 36 35 35 33 31 28
9 9 9 13 12 9 10 10 11 6 3 6 9 8 8 6 6 4 4 4 5 4 4 5 24 34 38 46 40 44 47 47 47 45 43 41 39 38 38 34 32 30 30 28
10 13 11 12 9 14 15 11 9 5 7 9 12 6 6 8 4 7 8 4 6 3 6 10 31 40 41 46 42 43 44 46 45 42 40 39 38 39 39 36 33 31 29 28
10 16 26 24 16 12 10 5 9 6 10 9 7 8 6 4 6 6 4 2 7 8 9 13 34 47 49 47 46 45 45 45 42 42 38 37 38 39 38 37 33 30 28 28
Wind_Direction_850mb
2 2 359 4 2 3 12 6 37 356 44 48 14 12 345 318 331 347 5 309 286 340 148 168 166 179 180 189 166 186 292 159 152 173 191 182 191 196 202 184 175 55 255 102
1 2 1 2 6 4 360 348 340 354 35 38 2 342 7 350 355 12 352 333 351 316 138 152 175 179 119 179 188 171 181 153 156 155 176 187 185 189 199 215 258 198 160 126
357 1 2 1 4 6 20 346 347 9 31 49 358 344 357 354 352 16 341 334 23 335 156 172 162 161 87 174 199 237 304 163 172 177 168 176 183 185 197 196 191 199 213 127
353 357 0 1 6 10 22 13 41 3 336 359 354 358 358 349 359 344 10 16 13 353 217 145 134 129 125 161 162 220 269 161 201 167 155 177 190 193 205 205 210 236 174 205
352 355 358 360 4 14 30 15 356 340 285 318 348 14 359 351 346 316 352 0 334 332 63 10 59 335 189 166 183 199 219 139 136 129 168 196 200 204 202 211 214 227 250 202
348 351 357 360 3 19 26 10 351 319 298 335 348 14 342 326 347 316 347 328 313 346 6 324 300 317 312 297 191 185 195 152 205 127 170 179 185 192 199 210 225 230 226 146
343 346 351 1 5 13 3 353 347 318 312 322 347 323 334 341 332 309 310 338 345 355 323 299 255 255 233 206 180 203 192 198 199 143 171 202 79 115 186 200 209 184 104 130
337 339 343 355 2 355 358 338 350 323 294 315 298 337 325 330 337 336 316 340 291 319 321 237 186 185 188 161 178 187 233 194 161 162 195 86 149 167 175 189 162 179 140 120
328 330 333 342 353 346 348 329 323 314 303 343 320 315 309 328 339 328 302 337 352 357 263 236 196 185 197 180 156 185 187 219 209 200 190 203 154 146 183 179 221 172 160 154
315 319 322 328 339 340 331 314 315 296 269 282 301 297 323 309 336 283 282 336 338 358 314 218 210 202 277 181 188 181 179 192 204 204 210 206 91 153 163 217 94 159 161 160
308 314 314 317 325 324 319 296 306 272 269 285 266 277 274 280 285 268 318 315 21 326 9 311 237 258 184 232 199 186 189 178 205 221 211 223 159 157 214 78 126 149 150 157
301 301 310 308 310 317 314 303 301 301 267 266 287 277 264 255 252 266 283 275 271 341 317 303 309 272 253 212 195 210 210 220 190 227 193 108 111 48 114 123 135 145 137 139
289 295 302 302 303 317 299 293 293 295 286 304 262 256 253 283 286 248 229 242 274 277 304 293 296 272 306 224 220 212 188 186 197 179 97 116 109 111 122 126 132 137 140 137
285 287 299 299 300 300 292 285 283 265 279 286 295 282 286 262 265 237 252 261 285 292 289 237 234 260 320 291 317 243 13 168 149 95 131 117 110 123 127 125 127 127 128 131
283 287 295 297 295 298 293 281 260 252 243 298 298 305 304 238 217 226 248 252 276 280 245 221 225 231 239 225 325 269 193 180 207 188 162 172 133 131 131 127 127 128 127 125
279 289 298 293 295 298 314 282 247 231 223 292 298 310 294 227 238 243 243 250 274 254 234 227 248 243 209 253 210 254 235 234 226 144 138 129 128 125 129 125 125 125 124 126
288 297 296 291 282 270 247 294 150 180 250 266 284 290 238 256 244 231 244 247 243 248 254 175 257 240 231 250 249 47 169 151 138 139 130 119 126 126 125 121 120 118 117 117
295 299 292 281 268 267 264 261 246 242 248 242 271 270 269 202 260 202 172 252 245 250 289 205 219 196 214 227 194 141 129 127 130 139 129 125 124 121 118 119 123 117 116 118
299 300 293 280 238 232 247 230 202 196 228 271 255 286 289 295 277 218 170 228 257 260 261 209 269 30 49 115 146 136 127 134 131 123 119 120 117 120 124 127 126 122 122 122
303 302 253 227 206 208 188 248 215 209 215 220 251 249 264 296 298 234 170 250 194 269 243 179 54 356 49 108 128 147 148 133 134 122 122 123 126 129 128 127 128 128 129 129
346 262 255 290 236 202 210 224 211 190 221 213 232 227 256 265 286 318 283 221 270 285 136 237 113 133 109 132 123 132 138 139 128 130 131 133 131 131 130 128 128 129 129 132
246 278 296 285 225 222 236 210 190 213 241 176 217 206 222 262 240 255 228 273 184 253 314 244 126 167 147 140 134 137 138 137 132 129 126 126 126 128 130 130 132 134 135 133
296 225 243 223 201 243 221 201 205 224 192 205 209 199 220 212 236 254 253 243 186 289 268 40 65 143 145 144 135 129 129 130 127 126 127 127 128 131 134 135 135 133 132 134
249 220 230 226 198 231 226 249 285 55 229 241 253 242 242 209 234 270 264 94 237 212 183 166 147 160 149 149 141 133 134 132 132 133 132 131 130 130 132 134 137 137 134 137
250 234 239 224 252 266 271 260 242 211 268 297 280 242 242 209 259 234 296 227 260 210 151 118 149 158 151 149 144 140 138 138 138 139 137 135 134 135 134 135 135 136 135 138
235 232 257 244 266 262 238 230 245 259 273 285 251 253 218 204 232 222 232 226 170 122 95 114 153 157 155 154 148 141 145 143 141 142 141 140 140 141 139 137 136 135 133 131
235 232 234 249 270 277 278 232 223 217 263 260 261 237 174 153 222 223 211 322 70 65 90 131 158 156 153 150 145 144 146 143 143 142 143 142 142 142 141 140 139 135 133 133